STARLINK-1944, 46796

Orbit data source: Space-Track

STARLINK-1944, 46796 is a payload satellite owned by SpaceX/Seattle (US) in LEO that was launched on Sat, 24 Oct 2020 UTC via an FALCON 9 launch vehicle from the Air Force Eastern Test Range (AFETR). Payload-class satellites include a variety of spacecraft equipped with specific instruments for various scientific and technological missions. These include communications satellites like Starlink; space stations such as the ISS; scientific satellites like the Hubble; Earth observation satellites from companies like Planet Labs, Umbra, and HawkEye 360; GPS; miniature CubeSats for education and research; and military/defense satellites.

Loading next visibility...
Identifier
46796, 2020-074BK
Orbit
LEO
Country
Flag of USUS
Related business
Manufacturer
SpaceX/Seattle
Mission
Operational Commercial Communications
Bus & Motor
STARLINK, Unknown motor
Mass
260 kg wet, ~248 kg dry
Launch date (UTC)
2020-10-24 (5 years ago)
Launch vehicle
FALCON 9
Launch site
Air Force Eastern Test Range (AFETR)
Object type
Payload
Rocket body
Debris
Shape & HBR
Box + 1 Pan, 4.4 m
Radar Cross Section
13.562 m², Large (>1 m²)

Expand to show TLE details & history
Last TLE update: 10 hours ago

TLE from 10 hours ago
0 STARLINK-1944
1 46796U 20074BK  25260.26444962  .00000048  00000-0  22131-4 0  9992
2 46796  53.0561  10.1566 0000967  79.9926 280.1172 15.06389736270678
Epoch: 2025-09-17T06:20Z
TLE epoch observation values (Epoch: 2025-09-17T06:20:48.447Z)
Latitude
-0.00001°
Longitude
-81.48816°
Altitude
548.005 km
Speed
7.589 km/s
True Right ascension
00h 40m 37s
True Declination
0° 00' 00"
Sunlit
Object was in full shadow at epoch
Visualization orbit readout
Latitude
Unknown
Longitude
Unknown
Altitude
Unknown
Speed
Unknown
Apparent Right ascension
Unknown
Apparent Declination
Unknown
Sunlit
N/A
Visualization observer readout
Local Sidereal Time
09:05:06
Azimuth
Unknown
Elevation
Unknown
Doppler factor
Unknown
Orbital elements
Apogee altitude
548.183 km
Perigee altitude
546.844 km
Semi-major axis
6,925.65 km
Eccentricity
0.0001
Inclination
53.0561°
RAAN
10.1566°
Arg. of periapsis
79.9926°
True anomaly
280.10629°
Mean anomaly
280.1172°
Eccentric anomaly
280.11175°
Mean motion
3.76576 °/min
Orbital period
95.6 mins
BSTAR
0.000022131
Loading maneuver chart data...
Computing Atmospheric mass density...

Documentation

Showing up to 5 results
|